462  
ASUS44 KMOB 172312  
RWRMOB  
REGIONAL WEATHER ROUNDUP  
NATIONAL WEATHER SERVICE MOBILE AL  
500 PM CST THU JAN 17 2019  
 
NOTE: "FAIR" INDICATES FEW OR NO CLOUDS BELOW 12,000 FEET WITH NO  
SIGNIFICANT WEATHER AND/OR S TO VISIBILITY
.  
 
* THESE STATIONS ARE PART OF THE UNIVERSITY OF SOUTH ALABAMA  
MESONET AND ARE NOT UNDER NWS OR FAA QUALITY CONTROL.
 
 
ALZ061>064-180000-  
COASTAL ALABAMA  
 
CITY SKY/WX TMP DP RH WIND PRES REMARKS
 
MOBILE REG APT CLOUDY 59 52 77 S8 30.15F  
BROOKLEY FIELD CLOUDY 57 55 93 SE7 30.16F  
USA CAMPUS* N/A 59 54 82 SE3 30.16S  
DOG RIVER* N/A 57 55 94 SE5 30.18F  
 
 
CITY SKY/WX TMP DP RH WIND PRES REMARKS
 
GULF SHORES CLOUDY 58 57 95 E3 30.17F  
 

 
 
ALZ051>060-180000-  
INTERIOR SOUTHWEST AND SOUTH CENTRAL ALABAMA  
 
CITY SKY/WX TMP DP RH WIND PRES REMARKS
 
GREENVILLE CLOUDY 56 48 74 S5 30.13F  
EVERGREEN CLOUDY 60 50 69 S5 30.15R  
ATMORE* N/A N/A N/A N/A SW7 30.92S  
ANDALUSIA/OPP CLOUDY 60 53 77 CALM 30.15S  
ANDALUSIA* N/A 57 54 88 CALM 30.14S  
FLORALA APT CLOUDY 60 49 66 S8 30.18S  
FLORALA* N/A 59 50 72 CALM 30.89R  
 

 
 
FLZ001>006-180000-  
WESTERN FLORIDA PANHANDLE  
 
CITY SKY/WX TMP DP RH WIND PRES REMARKS
 
PENSACOLA LGT RAIN 61 53 75 SW5 30.17R  
NAS PENSACOLA CLOUDY 61 55 81 CALM 30.17R  
MILTON CLOUDY 59 53 80 S7 30.17R  
WHTNG S FIELD CLOUDY 59 53 80 S5 30.17S  
 
 
CITY SKY/WX TMP DP RH WIND PRES REMARKS
 
JAY* N/A 59 54 82 S8 N/A  
DUKE FIELD MOCLDY 60 49 68 S6 30.16R  
CRESTVIEW CLOUDY 60 50 69 VRB7 30.18R  
VALPARAISO CLOUDY 61 50 69 SE5 30.16S  
DESTIN CLOUDY 61 51 70 S6 30.16F  
 

 
 
MSZ076-079-180000-  
INTERIOR SOUTHEAST MISSISSIPPI  
 
CITY SKY/WX TMP DP RH WIND PRES REMARKS
 
LEAKESVILLE* NOT AVBL  
AGRICOLA* N/A 55 54 94 CALM 30.13F  
 

 
 
MARINE OBSERVATIONS  
 
STATION/POSITION TIME TEMP WIND PRES WAVE
 
AIR SEA DIR/SP/G HT/PER  
(UTC) (F) (DEG/KT/KT) (MB) (FT/S)  
PETIT BOIS ISLND 2200 58 110/ 5/ 7 1021.9  
GRAND BAY 2045 57 170/ 2 1023.0  
KATRINA CUT 2230 58 110/ 5 1021.3F  
CEDAR POINT 2230 57 90/ 4 1021.3F  
E DAUPHIN ISLAND 2200 59 140/ 3/ 4 1021.5R  
MIDDLE BAY LIGHT 2230 56 90/ 5 1020.7F  
STATE DOCKS 2242 56 52 1021.0F  
MEAHER PARK 2230 55 150/ 5 1022.0R  
WEEKS BAY 2045 62 1021.0  
FORT MORGAN 2242 60 150/ 5/ 5 1021.2F  
12 S ORANGE BCH 2250 63 270/ 6/ 8 1021.8R 1  
PENSACOLA BAY 2242 61 54 270/ 2/ 3 1021.9R  
64 S DAUPHIN ISL 2250 230/ 6/ 6 1021.5F 1  
 

 
 
SELECTED LOCATIONS ACROSS THE REGION  
 
CITY SKY/WX TMP DP RH WIND PRES REMARKS
 
NEW ORLEANS CLOUDY 65 61 87 S7 30.11F  
GULFPORT CLOUDY 57 53 86 SE6 30.13F  
PASCAGOULA AP CLOUDY 60 52 74 SE6 30.14F  
PASCAGOULA* NOT AVBL  
HATTIESBURG CLOUDY 58 54 86 S6 30.12F  
LAUREL CLOUDY 56 55 97 SE5 30.12S  
MERIDIAN LGT RAIN 54 51 90 S8 30.11S  
JACKSON LGT RAIN 57 54 89 S5 30.10R  
MONTGOMERY CLOUDY 53 49 86 CALM 30.15S  
TROY CLOUDY 54 48 80 SW6 30.15F  
ASHFORD* N/A 57 54 88 CALM 30.14S  
DOTHAN CLOUDY 62 44 51 SW5 30.18F  
PANAMA CITY CLOUDY 59 51 75 SE6 30.18F  
 

 
 
 
 
CLICK HERE TO GO TO PREVIOUS BULLETINS.

The Nexlab AL Page
The Nexlab FL Page
The Nexlab MS Page Main Text Page